Regional Weather Roundup
Issued by NWS Albany, NY

Home | Current Version | Previous Version | Text Only | Print | Product List | Glossary On
Versions: 1 2 3 4 5 6 7 8 9 10 11 12 13 14 15 16 17 18 19 20 21 22 23 24 25 26 27 28 29 30 31 32 33 34 35 36 37 38 39 40 41 42 43 44 45 46 47 48 49 50
000
ASUS41 KALY 091410
RWRALY

NEW YORK STATE HOURLY WEATHER ROUNDUP
NATIONAL WEATHER SERVICE ALBANY NY
900 AM EST FRI DEC 09 2016

NOTE: "FAIR" INDICATES FEW OR NO CLOUDS BELOW 12,000 FEET WITH NO
SIGNIFICANT WEATHER AND/OR NO OBSTRUCTIONS TO VISIBILITY.

NYZ032-033-038>043-046>054-057>066-NYZ062>081-082-084-091500-
EAST


CITY           SKY/WX    TMP DP  RH WIND       PRES   REMARKS
ALBANY         MOSUNNY   29  16  58 NW14G23   30.05R WCI  18
GLENS FALLS    CLOUDY    30  13  49 NW8       30.02R WCI  22
POUGHKEEPSIE   SUNNY     33  17  51 NW12      30.06R WCI  24
NEWBURGH       MOSUNNY   32  23  69 NW16      30.07R WCI  21
MONTGOMERY     MOSUNNY   33  22  63 W10       30.07R WCI  25
WHITE PLAINS   MOSUNNY   34  20  56 W20G29    30.05R WCI  23
ISLIP          MOSUNNY   35  19  52 W14       30.06R WCI  26
NEW YORK CITY  MOSUNNY   36  20  52 W16G26    30.10R WCI  26
CENTRAL PARK     N/A     36  19  51 MISG        N/A
$$

NYZ005>009-017-018-044>046-055-056-091500-
CENTRAL


CITY           SKY/WX    TMP DP  RH WIND       PRES   REMARKS
FULTON         CLOUDY    27  15  61 NW15G23   30.14R WCI  15
SYRACUSE       LGT SNOW  26  20  77 NW16G24   30.12R WCI  14
ROME           CLOUDY    24  20  84 W14       30.10R WCI  12
ELMIRA         SUNNY     29  15  56 NW16      30.12R WCI  17
BINGHAMTON     LGT SNOW  22  18  85 W13G18    30.04R FOG     WCI  10
MONTICELLO     PTSUNNY   27  21  80 W9G20     30.04R WCI  17
$$

NYZ026>034-041>043-087-091500-
NORTH


CITY           SKY/WX    TMP DP  RH WIND       PRES   REMARKS
WATERTOWN      MOSUNNY   25  14  63 W10       30.13R WCI  15
FORT DRUM      NOT AVBL
OGDENSBURG     FAIR      26  15  65 W13G21    30.09R WCI  14
MASSENA        SUNNY     23  12  62 W14G21    30.07R WCI  11
SARANAC LAKE   LGT SNOW  17  10  74 MISG      29.92R
PLATTSBURGH    SUNNY     25  12  58 W8        30.00R WCI  16
$$

NYZ001>004-010>016-019>021-085-091500-
WEST


CITY           SKY/WX    TMP DP  RH WIND       PRES   REMARKS
NIAGARA FALLS  CLOUDY    28  15  58 NW14      30.22R WCI  17
BUFFALO        PTSUNNY   27  16  63 NW12      30.20R WCI  17
DUNKIRK        MIX PCPN  28  20  71 NW14G23   30.23R WCI  17
JAMESTOWN      CLOUDY    25  19  80 W8G17     30.14R VSB 3/4 WCI  16
WELLSVILLE     LGT SNOW  24  18  77 NW9       30.11R VSB 1   WCI  14
ROCHESTER      LGT SNOW  25  21  85 NW10      30.18R VSB 1   WCI  15
PENN YAN       LGT SNOW  27  18  69 NW7G18    30.13R WCI  19
$$

             KEY
       WCI = WIND CHILL INDEX
       VSB = VISIBILITY
       HX  = HEAT INDEX
$$



USA.gov is the U.S. government's official web portal to all federal, state and local government web resources and services.